Weather History for Eureka, N. W. T., Nunavut

Change the Weather History Date:

Monday, January 7, 2013

  Actual Average Record
Temperature  
Mean Temperature -38 °F -  
Max Temperature -34 °F -29 °F - ()
Min Temperature -41 °F -42 °F - ()
Degree Days  
Heating Degree Days 102    
Moisture  
Dew Point -46 °F    
Average Humidity 66    
Maximum Humidity 74    
Minimum Humidity 49    
Precipitation  
Precipitation 0.00 in 0.00 in - ()
Sea Level Pressure  
Sea Level Pressure 29.78 in    
Wind  
Wind Speed 1 mph ()    
Max Wind Speed 2 mph    
Max Gust Speed -    
Visibility 15.0 miles    
Events Snow    
T = Trace of Precipitation, MM = Missing Value Source: Averaged Metar Reports

Daily Weather History Graph

Daily Weather History Graph

Search for Another Location

Airport:

Trip Planner

Search our weather history database for the weather conditions in past years. The results will help you decide how hot, cold, wet, or windy it might be!

Date:

Astronomy

Dec. 31, 1969 Rise Set
Actual Time Sun does not rise Sun does not rise
Civil Twilight Sun does not rise Sun does not rise
Nautical Twilight 11:17 AM CST 12:22 PM CST
Astronomical Twilight 7:24 AM CST 4:16 PM CST
Moon No Moon Rise No Moon Set
Length of Visible Light 0h 00m
Length of Day
0h 00m
Waning Crescent, 22% of the Moon is Illuminated
Jan 7
Waning Crescent
Jan 11
New
Jan 18
First Quarter
Jan 26
Full
Feb 3
Last Quarter

Hourly Weather History & Observations

Time (CST) Temp. Dew Point Humidity Pressure Visibility Wind Dir Wind Speed Gust Speed Precip Events Conditions
12:00 AM -39 °F -46 °F 51% 29.72 in 15 mi Calm Calm - - Snow Snow
1:00 AM -38.2 °F -45.4 °F 67% 29.73 in 15.0 mi Calm Calm - N/A   Clear
2:00 AM -40.0 °F -47.2 °F 67% 29.74 in 15.0 mi ESE 2.3 mph - N/A   Clear
3:00 AM -40.0 °F -47.2 °F 67% 29.74 in 15.0 mi Calm Calm - N/A   Clear
4:00 AM -41.8 °F -47.2 °F 74% 29.75 in 15.0 mi Calm Calm - N/A   Clear
5:00 AM -40.0 °F -47.2 °F 67% 29.75 in 15.0 mi Calm Calm - N/A   Clear
6:00 AM -40 °F -46 °F 52% 29.75 in 15 mi East 2.3 mph - - Snow Snow
6:00 AM -40.0 °F -47.2 °F 67% 29.75 in 15.0 mi East 2.3 mph - N/A   Clear
7:00 AM -38.2 °F -43.6 °F 74% 29.75 in 15.0 mi ENE 2.3 mph - N/A   Clear
10:00 AM -38.2 °F -45.4 °F 67% 29.78 in 15.0 mi Calm Calm - N/A   Partly Cloudy
11:00 AM -38.2 °F -45.4 °F 67% 29.78 in 15.0 mi East 2.3 mph - N/A   Partly Cloudy
12:00 PM -38 °F -45 °F 49% 29.80 in 15 mi East 2.3 mph - - Snow Snow
12:00 PM -38.2 °F -45.4 °F 67% 29.80 in 15.0 mi East 2.3 mph - N/A   Partly Cloudy
1:00 PM -36.4 °F -43.6 °F 67% 29.80 in 15.0 mi Calm Calm - N/A   Clear
2:00 PM -40.0 °F -45.4 °F 74% 29.81 in 15.0 mi Calm Calm - N/A   Clear
3:00 PM -38.2 °F -45.4 °F 67% 29.81 in 15.0 mi Calm Calm - N/A   Clear
4:00 PM -38.2 °F -45.4 °F 67% 29.81 in 15.0 mi Calm Calm - N/A   Clear
5:00 PM -40.0 °F -45.4 °F 74% 29.81 in 15.0 mi ESE 2.3 mph - N/A   Clear
6:00 PM -40 °F -46 °F 56% 29.81 in 15 mi Calm Calm - - Snow Snow
6:00 PM -40.0 °F -45.4 °F 74% 29.81 in 15.0 mi Calm Calm - N/A   Clear
7:00 PM -40.0 °F -45.4 °F 74% 29.81 in 15.0 mi Calm Calm - N/A   Clear
8:00 PM -38.2 °F -45.4 °F 67% 29.81 in 15.0 mi Calm Calm - N/A   Clear
9:00 PM -38.2 °F -45.4 °F 67% 29.81 in 15.0 mi South 2.3 mph - N/A   Clear